sat.trackr.live / text

‹ back to catalog

ION SCV-007

NORAD 55060 · 2023-001BD

PAYLOAD ACTIVE UNKNOWN

§ Identity

Operator
Country
IT
Launch date
2023-01-03
Launch site
AFETR
Launch vehicle
Mass (kg)
RCS (m²)

External: N2YO · Heavens-Above · Gunter

§ Orbital elements

Epoch: 2026-09-21T18:21:48.567744Z

Period
97.45 min
Inclination
97.8905°
Eccentricity
0.0012941
Mean motion
14.77622219 rev/d
Perigee alt
627.8 km
Apogee alt
645.9 km
Semi-major
7,015.0 km
B*
3.3329e-5
RAAN
325.8149°
Arg perigee
29.6875°
Mean anomaly
330.5067°
Rev number
20,051

§ Raw data

ION SCV-0071 55060U 23001BD  26264.76514546  .00000188  00000+0  33329-4 0  99902 55060  97.8905 325.8149 0012941  29.6875 330.5067 14.77622219200515

JSON: /api/v1/satellites/55060 · /tle

For live sub-satellite position, see the globe view (requires WebGL).

§ Visibility from observer

Set your observer location to see the next 7 days of passes ≥ 10°. The values pass through the URL so the page stays shareable.

No JS? Fill the form by hand. The geolocation button needs JavaScript.

§ Radio — SatNOGS DB

ModeDescriptionDownlinkUplink
FSK AX.100 Mode 5 Mode U - FSK1k2 AX.100 401.415 MHz
BPSK S-Band Transmitter 2.262 GHz

2 transmitters · refreshed weekly from db.satnogs.org